COSMOS 2251 DEB, 40223

Orbit data source: Space-Track

COSMOS 2251 DEB, 40223 is space debris in LEO originally from a launch on Wed, 16 Jun 1993 UTC launched from the Plesetsk Missile And Space Complex (PKMTR). The debris from Iridium 33, an American commercial communications satellite, has been tracked extensively since its accidental collision with the defunct Russian satellite Cosmos 2251 in 2009. This event, occurring at high speed in low Earth orbit (LEO), generated thousands of pieces of space debris, significantly increasing the risk of further collisions. The Iridium 33 debris cloud has impacted space traffic management and orbital debris mitigation strategies, making it a subject of ongoing study in space situational awareness.

Loading next visibility...
Identifier
40223, 1993-036BVC
Orbit
LEO
Country
Flag of CISCIS
Related business
Manufacturer
Unknown
Mission
Spacecraft
Bus & Motor
Unknown
Mass
Unknown
Launch date (UTC)
1993-06-16 (32 years ago)
Launch vehicle
Unknown
Launch site
Plesetsk Missile And Space Complex (PKMTR)
Object type
Payload
Rocket body
Debris
Shape & HBR
Unknown shape, 0.1 m
Radar Cross Section
Small (<0.1 m²)

Expand to show TLE details & history
Last TLE update: 3 days ago

TLE from 3 days ago
0 COSMOS 2251 DEB
1 40223U 93036BVC 25292.00870480  .00085998  00000-0  75739-2 0  9991
2 40223  73.9384 200.4709 0010901  11.4215   2.6757 14.95956645585542
Epoch: 2025-10-19T00:12Z
TLE epoch observation values (Epoch: 2025-10-19T00:12:32.094Z)
Latitude
13.51357°
Longitude
173.55157°
Altitude
573.756 km
Speed
7.579 km/s
True Right ascension
13h 37m 40s
True Declination
13° 26' 01"
Sunlit
Object was in daylight at epoch
Visualization orbit readout
Latitude
Unknown
Longitude
Unknown
Altitude
Unknown
Speed
Unknown
Apparent Right ascension
Unknown
Apparent Declination
Unknown
Sunlit
N/A
Visualization observer readout
Local Sidereal Time
13:28:35
Azimuth
Unknown
Elevation
Unknown
Doppler factor
Unknown
Orbital elements
Apogee altitude
584.553 km
Perigee altitude
569.39 km
Semi-major axis
6,955.109 km
Eccentricity
0.00109
Inclination
73.9384°
RAAN
200.4709°
Arg. of periapsis
11.4215°
True anomaly
2.68154°
Mean anomaly
2.6757°
Eccentric anomaly
2.67862°
Mean motion
3.74186 °/min
Orbital period
96.21 mins
BSTAR
0.0075739

Documentation

Showing up to 5 results
|